Theta_e
295 295 295 294 294 294 292 289 287 291 292 291 292 293 293 294 293 294 296 297 296 296 297 299 304 304 298 295 298 306 307 312 311 310 309 308 311 312 311 310 313 304 303 305
294 294 294 295 295 294 293 289 288 292 292 289 289 290 291 292 292 295 293 295 294 294 295 296 295 294 296 293 296 299 300 309 310 313 309 309 313 311 311 306 306 306 307 305
294 293 293 293 294 294 292 288 290 289 287 288 289 289 290 291 292 292 292 290 293 291 291 294 294 293 294 292 293 297 297 304 307 310 310 309 311 313 312 312 315 311 303 305
294 293 292 293 293 293 292 286 289 289 289 289 288 288 289 291 291 289 289 290 289 291 290 289 290 291 290 290 294 293 293 296 297 298 300 304 310 312 312 314 313 315 307 307
292 293 293 293 293 292 291 289 290 287 288 288 288 289 289 291 292 290 289 288 289 287 283 285 288 290 289 289 291 292 293 293 293 295 299 304 307 303 300 311 307 313 312 301
292 293 292 292 292 292 291 290 290 290 288 288 289 289 291 291 291 291 290 288 287 288 289 287 287 287 287 287 286 289 290 293 295 295 295 296 301 291 293 292 287 291 304 289
293 291 292 292 292 292 291 290 290 289 290 288 289 289 290 290 291 290 289 288 287 288 287 285 286 285 286 287 287 288 286 291 294 293 296 296 288 286 288 286 285 285 286 286
291 291 292 291 292 292 292 291 290 289 289 289 289 288 289 291 289 289 290 289 288 285 286 287 288 287 287 288 288 288 289 290 287 291 295 291 287 285 284 285 284 284 284 284
291 291 291 290 291 291 291 290 290 289 287 287 288 290 290 288 287 286 288 287 286 286 289 287 287 288 288 289 289 288 289 290 290 294 293 294 284 282 283 283 284 282 282 283
290 291 290 291 291 291 290 290 290 290 286 288 288 288 291 286 284 283 285 286 286 286 288 289 288 287 289 289 287 287 285 286 291 290 292 284 281 280 282 288 282 282 282 282
290 290 290 290 290 291 289 289 290 289 283 284 288 289 288 289 287 286 284 283 284 285 280 282 282 282 285 285 282 282 280 281 284 286 285 285 280 280 281 280 281 281 281 280
290 290 290 290 290 290 289 288 289 288 288 285 288 289 289 288 288 287 285 284 282 285 281 279 279 287 286 283 281 276 278 274 278 277 280 279 279 278 278 279 279 279 280 279
290 290 290 290 290 290 289 289 288 288 287 286 285 287 287 287 287 287 284 285 285 281 281 279 284 288 286 283 279 273 273 271 274 277 276 276 277 277 277 277 278 278 278 278
289 289 289 290 290 290 288 288 287 287 287 287 285 286 287 287 287 286 286 286 286 285 284 279 284 285 281 276 276 275 272 270 269 271 273 276 277 275 275 276 276 277 277 277
289 289 289 289 289 288 288 287 286 286 286 285 285 285 287 286 285 284 284 284 281 284 282 282 282 282 277 273 273 271 270 270 270 272 271 271 271 272 274 275 275 275 276 276
289 289 289 289 287 288 288 287 286 287 286 280 283 285 285 283 283 283 282 283 279 276 280 280 279 278 276 272 271 271 271 271 270 272 270 269 271 270 273 270 270 274 274 274
289 289 289 289 288 286 286 286 287 287 286 286 283 284 281 281 284 283 281 280 271 276 278 277 277 274 274 269 269 271 271 271 271 270 272 271 269 270 272 273 274 274 274 274
289 288 289 289 288 287 286 286 286 284 285 280 272 279 281 280 280 281 281 273 272 275 276 276 273 273 272 269 270 269 270 271 271 271 272 272 272 273 273 274 274 271 272 273
288 288 288 288 286 283 284 286 286 283 282 273 272 277 276 279 280 283 282 276 276 275 273 272 274 272 271 269 267 268 269 270 271 272 272 273 273 273 272 273 273 273 273 274
285 287 287 284 283 283 284 282 280 278 277 275 274 275 275 277 280 281 280 274 277 272 274 273 270 268 266 267 268 270 271 270 272 273 273 273 273 273 273 272 273 273 273 273
283 283 283 282 282 282 279 278 277 274 270 275 274 273 273 276 278 280 279 277 277 273 279 274 266 266 269 270 270 272 273 273 272 273 273 273 273 273 273 273 273 273 273 273
283 283 281 280 278 276 274 272 276 275 275 274 272 274 274 276 280 279 277 278 275 275 276 272 268 269 268 270 271 271 273 272 272 272 272 272 272 272 272 272 272 272 272 273
282 279 274 275 274 276 273 275 274 274 276 275 273 272 275 278 278 274 274 274 275 276 272 272 270 270 272 272 272 272 271 272 271 271 271 271 271 271 271 271 271 271 272 272
276 274 276 273 273 276 275 276 276 276 276 274 273 273 277 276 273 275 273 276 274 271 270 270 269 270 272 272 271 271 270 270 270 270 269 270 270 270 270 270 271 271 271 271
273 276 275 274 277 276 275 275 276 276 275 275 275 275 274 272 271 274 274 272 272 273 272 272 272 272 272 271 271 270 270 270 269 269 269 269 270 269 269 270 270 270 270 270
274 275 274 278 277 275 274 273 274 274 273 275 274 271 270 270 270 272 272 271 272 272 273 273 272 271 272 271 270 270 270 270 269 269 269 269 269 269 269 270 270 270 270 270
271 276 275 277 275 274 273 272 273 273 274 272 270 271 271 270 271 272 273 271 272 272 272 271 271 271 270 270 270 270 270 269 269 269 269 269 270 269 269 269 270 269 269 270
Wind_Speed
21 23 23 25 25 27 28 6 3 19 26 4 2 3 6 8 10 5 4 6 6 5 8 6 2 4 5 19 14 6 5 3 7 11 4 7 15 18 12 5 5 3 3 5
22 23 24 25 24 23 18 3 3 10 13 3 3 4 6 3 8 5 3 3 2 2 4 5 6 7 7 17 13 10 9 4 2 3 1 1 8 5 12 4 2 7 6 5
21 23 23 24 24 20 15 3 4 4 4 1 3 5 3 6 5 2 2 1 1 4 3 5 4 7 3 12 7 13 12 4 6 5 2 3 5 9 10 14 9 7 6 3
21 22 24 23 23 21 11 2 2 1 4 4 6 3 4 8 5 2 5 1 1 1 2 5 2 4 9 6 2 2 4 4 6 12 9 6 7 5 10 18 17 10 7 10
22 22 22 22 21 20 3 1 1 2 4 4 5 3 3 4 4 3 4 1 4 1 4 6 4 2 1 5 3 2 1 4 8 11 5 6 5 6 13 8 5 12 6 5
22 22 23 21 20 15 3 3 3 2 4 3 2 3 3 6 6 6 6 2 0 4 3 4 8 9 9 8 4 4 3 3 1 6 9 10 5 7 3 5 12 7 2 6
22 24 22 21 19 16 6 5 3 2 4 3 7 9 12 15 9 6 4 2 2 3 6 7 6 6 11 10 14 7 4 3 6 3 2 4 5 10 17 18 13 14 12 13
23 23 22 21 20 16 13 4 3 2 3 3 10 8 8 5 6 4 3 5 1 4 3 3 5 4 4 1 4 4 11 6 2 3 5 6 2 6 5 5 7 13 13 14
23 23 21 22 21 16 10 9 5 2 1 4 4 6 8 3 2 4 2 2 4 5 1 2 0 2 3 3 5 6 11 16 7 3 3 6 5 12 8 5 2 11 13 14
24 23 22 22 19 15 9 4 3 5 2 2 2 4 4 3 2 1 3 5 5 3 2 0 1 2 3 3 4 5 5 4 2 6 2 4 11 16 6 5 2 11 9 10
23 23 22 19 17 13 8 3 3 2 1 4 1 2 4 3 2 1 3 2 3 2 3 2 2 0 2 3 2 3 2 3 3 3 3 2 16 4 5 4 5 8 8 10
23 22 20 18 16 11 5 1 4 4 4 3 6 8 8 4 4 2 1 2 2 1 2 0 1 2 1 2 1 4 2 1 1 3 3 4 5 7 6 7 6 7 8 9
22 20 17 16 15 6 6 0 4 3 2 3 2 2 3 6 5 3 2 1 1 1 3 3 2 1 2 1 2 2 6 3 2 1 3 3 7 6 8 7 7 9 9 8
21 18 14 14 13 5 2 0 5 2 2 2 3 3 3 6 5 5 2 2 2 1 0 2 0 1 5 2 3 3 1 4 3 2 4 4 4 8 9 10 10 11 10 9
20 16 12 12 10 4 2 5 5 5 1 2 3 5 2 5 3 6 7 5 2 2 2 2 2 2 3 2 3 3 2 1 2 2 3 3 6 5 7 8 10 11 10 12
18 15 11 8 7 4 3 0 2 8 4 2 2 1 3 12 2 6 7 5 2 2 2 2 2 4 3 3 2 3 3 2 3 3 4 5 7 6 8 3 5 9 8 11
18 16 10 7 6 3 1 2 3 6 3 0 3 1 4 10 2 2 3 6 1 3 2 2 2 4 4 2 2 5 6 4 3 3 5 4 4 3 14 14 14 15 14 13
19 16 10 8 6 2 3 1 5 5 3 4 2 3 2 8 3 2 1 2 3 4 2 2 2 2 2 3 4 4 5 5 2 7 5 4 7 10 10 16 13 8 8 14
21 12 7 7 5 3 1 4 2 6 5 3 2 1 3 7 2 1 1 2 3 2 2 2 2 2 4 3 3 3 4 2 5 6 4 5 4 5 6 9 8 8 9 14
11 3 3 1 1 4 2 2 3 4 4 3 2 1 2 2 3 2 2 2 1 2 1 3 3 0 3 4 4 4 5 3 4 4 6 6 7 6 8 7 9 11 12 14
3 3 0 2 2 2 4 2 3 2 4 3 2 1 1 2 0 2 1 0 1 3 1 3 2 2 3 4 3 5 7 5 7 7 6 7 8 6 7 8 11 13 14 13
5 4 3 2 4 3 5 1 2 4 0 3 1 2 2 3 2 2 3 2 2 2 1 3 2 2 3 3 3 4 7 7 8 8 9 10 10 9 10 10 11 13 14 14
3 2 4 3 3 7 4 3 3 3 2 3 3 3 2 2 3 1 3 4 2 2 3 2 2 2 3 3 4 6 8 8 9 9 10 10 10 10 10 11 12 14 14 15
3 3 5 3 4 3 3 2 2 2 2 3 1 2 2 2 3 1 4 2 3 3 3 1 1 2 4 4 6 5 6 8 9 9 10 9 10 11 11 10 12 13 13 15
3 4 4 4 2 3 2 3 2 3 3 2 1 0 2 3 3 3 2 4 3 3 1 0 1 2 3 4 5 5 6 8 9 11 11 11 11 12 12 13 13 13 13 15
3 6 3 2 2 3 3 4 3 4 4 1 2 2 3 4 2 4 4 3 3 2 2 2 2 4 3 2 6 8 8 9 9 10 10 9 10 11 11 11 14 15 13 14
5 4 6 4 3 3 3 3 4 9 2 2 2 4 3 1 3 3 3 2 2 4 3 4 5 5 5 8 8 9 8 10 9 9 9 9 9 10 10 13 16 16 13 14
Wind_Direction
0 358 354 352 350 350 351 5 345 345 350 49 45 5 327 316 331 19 15 8 38 6 344 317 297 352 38 357 349 347 344 261 217 210 231 205 201 199 179 164 182 212 146 274
3 359 356 353 349 354 347 342 279 337 7 51 355 318 304 295 317 354 357 41 81 12 7 332 11 347 12 14 5 354 348 268 195 185 149 330 218 210 202 128 101 189 149 248
359 359 358 356 355 352 347 19 340 325 32 29 64 330 284 338 326 134 357 33 116 345 307 157 284 313 342 335 334 345 351 276 290 273 291 346 233 210 216 205 222 186 202 163
354 353 349 350 354 354 338 32 295 220 307 329 321 270 280 326 334 13 23 91 93 248 300 317 359 337 328 327 329 51 26 290 359 313 292 278 269 297 236 215 222 202 197 179
347 347 349 345 346 351 345 305 324 340 276 286 315 299 282 316 345 340 307 134 314 156 179 192 254 273 292 275 301 42 150 264 344 312 321 247 236 15 347 277 311 231 171 102
348 352 347 345 346 354 300 261 269 248 278 278 297 262 288 312 307 257 235 217 225 288 273 248 241 235 250 234 221 270 293 299 12 275 335 320 236 19 9 119 33 337 260 40
350 344 340 344 346 346 311 287 277 270 269 243 279 291 291 289 286 242 300 31 163 275 337 307 286 265 257 241 247 192 203 226 261 259 355 272 60 28 72 86 39 23 21 0
344 340 343 345 343 342 316 295 218 242 273 268 288 282 288 290 262 267 254 261 312 318 314 331 331 328 338 294 211 188 218 217 282 239 186 117 46 39 351 355 65 13 5 351
341 337 341 339 338 337 329 317 251 221 248 254 302 294 258 233 258 326 277 322 330 20 289 59 26 294 321 297 348 17 348 205 188 225 213 218 19 332 318 313 92 2 1 357
340 337 339 336 341 338 327 307 311 275 239 267 8 306 306 87 64 152 323 339 346 12 353 287 242 293 246 348 14 343 352 352 229 286 33 84 343 322 295 213 6 344 351 358
338 337 337 340 340 343 330 316 328 324 223 276 209 302 4 12 19 18 289 34 331 17 42 92 276 359 270 83 37 7 49 341 23 344 34 99 350 1 56 336 337 349 346 348
336 336 336 338 340 343 338 305 355 321 260 263 296 280 319 310 312 174 349 184 236 192 84 285 234 277 341 128 233 350 34 162 48 42 91 75 8 62 0 344 344 352 344 347
333 333 335 339 342 337 326 136 12 318 291 298 347 340 38 26 17 357 115 282 287 334 186 184 253 61 354 63 55 105 357 351 75 28 351 1 48 32 14 355 348 338 347 345
332 330 331 338 347 320 323 78 19 359 292 274 277 360 39 14 29 38 27 267 311 248 85 190 358 65 31 63 85 77 273 356 345 314 335 22 360 7 349 345 350 349 349 350
331 327 323 335 342 314 326 121 65 25 302 271 284 328 24 12 348 58 43 48 62 35 44 35 56 67 85 34 71 33 355 230 82 251 249 211 267 298 331 335 339 336 344 343
327 323 310 323 355 328 251 254 167 4 4 63 341 338 41 9 102 59 49 44 51 79 73 46 46 26 88 87 81 285 299 286 203 279 266 226 260 275 333 285 284 314 341 324
322 317 291 277 303 341 170 185 314 333 305 205 327 338 351 352 11 29 50 42 56 87 90 59 54 21 43 72 74 293 320 316 285 299 321 352 0 297 322 332 327 341 344 345
317 313 277 255 250 254 235 36 353 350 112 47 76 302 2 11 332 359 51 49 29 12 110 60 75 39 47 60 275 296 315 329 349 337 328 264 305 329 330 345 338 341 341 341
315 302 259 235 221 217 168 333 272 46 77 115 74 65 289 351 320 303 10 82 52 245 77 52 86 26 48 250 267 307 303 296 291 310 315 334 329 321 328 336 341 346 341 342
318 271 181 256 154 301 252 73 24 20 353 36 88 142 296 5 340 314 358 26 104 66 302 93 62 18 257 267 259 270 313 312 335 334 353 348 339 346 341 332 342 340 335 332
345 22 284 327 326 131 35 61 61 349 20 14 311 156 266 312 269 293 33 126 79 74 82 94 26 350 270 312 325 336 345 359 341 329 335 336 327 343 338 338 343 342 339 336
313 309 316 355 37 37 82 352 12 54 102 338 13 302 240 297 297 19 350 77 42 100 73 73 50 260 266 318 324 334 351 355 356 351 350 346 344 353 336 337 343 341 336 338
286 49 47 41 335 44 62 355 345 16 3 13 341 324 327 306 23 32 43 64 64 88 47 75 214 294 342 340 347 350 350 358 358 350 349 340 347 352 348 342 344 341 340 343
70 71 23 62 4 48 39 349 340 354 354 331 307 288 334 18 16 5 76 35 50 56 53 240 265 284 332 347 342 346 337 348 346 343 346 347 345 344 349 348 351 350 346 346
59 44 41 54 96 55 32 340 352 7 326 331 346 54 24 12 48 14 31 41 59 46 51 68 277 300 325 341 345 336 330 331 336 342 344 344 346 351 350 357 356 357 356 357
66 39 29 85 71 20 3 354 346 343 325 270 33 50 53 40 27 45 24 64 47 31 4 28 352 326 303 336 336 328 327 328 330 339 341 340 348 347 344 360 8 4 360 0
46 37 18 20 68 33 358 334 330 319 313 44 43 48 14 319 43 41 25 41 2 327 2 349 348 17 0 341 336 327 324 327 333 337 341 339 346 352 360 359 3 3 5 7